Terug naar catalogus

STARLINK-31393

ActiefCommunicatieVLEO
NORAD 59252·PAYLOAD·🇺🇸 United States

Gelanceerd Mar 16, 2024 vanaf Cape Canaveral Space Force Station

Loading…

Volgende Passages (komende 24 uur)

TLE

VersSource: CelesTrak SupGP

Epoch: Sep 14, 2026, 22:10 UTC

1 59252C 24049X   26257.92409722 -.00026526  00000+0 -96092-3 0  2577
2 59252  43.0003 140.2831 0001340 269.5371 144.9537 15.27586488    13

Volg STARLINK-31393 in realtime met AllMySat

Download on the App Store